User: anonymous   Login
Location: Caltech
(34.1382°N, 118.1253°W)
Time: 13:40:31
(UTC-07:00)
Language:

Cosmos 1975 - Orbit

View from above orbital plane
View from above orbital plane
View from above satellite
View from above satellite

Ground track
Ground track

The orbit data is extracted from the following two-line orbital elements,

1 19573U 88093A   16120.82740441 +.00000907 +00000-0 +64159-4 0  9998
2 19573 082.5233 025.2502 0013043 265.9142 094.0593 15.03648043476546
Epoch (UTC): 29 April 2016 19:51:27
Eccentricity: 0.0013043
inclination: 82.5233°
perigee height: 546 km
apogee height: 565 km
right ascension of ascending node: 25.2502°
argument of perigee: 265.9142°
revolutions per day: 15.03648043
mean anomaly at epoch: 94.0593°
orbit number at epoch: 47654

The dashed part of the orbit path shows where the satellite is in the earth's shadow,  

DLR